| time (UTC) | temp C | wind direction | speed KPH | gust KPH | rain 1hr cm | rain 24hr cm | rain mn cm | humidity % | barometer mb |
| 20260504050450 | 5 | 214 | 0.0 | 0.0 | 0.00 | 0.00 | 0.00 | 69 | 1017.2 |
| 20260504045947 | 5 | 210 | 0.0 | 0.0 | 0.00 | 0.00 | 0.00 | 76 | 1017.4 |
| 20260504045443 | 5 | 210 | 1.6 | 1.6 | 0.00 | 0.00 | 0.00 | 80 | 1017.3 |
| 20260504044940 | 5 | 210 | 0.0 | 1.6 | 0.00 | 0.00 | 0.00 | 77 | 1017.4 |
| 20260504044438 | 5 | 210 | 0.0 | 0.0 | 0.00 | 0.00 | 0.00 | 82 | 1017.4 |
| 20260504043935 | 5 | 210 | 0.0 | 0.0 | 0.00 | 0.00 | 0.00 | 80 | 1017.4 |
| 20260504043432 | 5 | 210 | 0.0 | 0.0 | 0.00 | 0.00 | 0.00 | 78 | 1017.3 |
| 20260504042929 | 5 | 210 | 0.0 | 0.0 | 0.00 | 0.00 | 0.00 | 78 | 1017.3 |
| 20260504042425 | 5 | 210 | 0.0 | 0.0 | 0.00 | 0.00 | 0.00 | 77 | 1017.3 |
| 20260504041922 | 5 | 210 | 0.0 | 1.6 | 0.00 | 0.00 | 0.00 | 77 | 1017.5 |
| 20260504041418 | 5 | 210 | 0.0 | 1.6 | 0.00 | 0.00 | 0.00 | 76 | 1017.0 |
| 20260504040914 | 6 | 352 | 3.2 | 3.2 | 0.00 | 0.00 | 0.00 | 76 | 1017.4 |
| 20260504040412 | 5 | 352 | 0.0 | 0.0 | 0.00 | 0.00 | 0.00 | 78 | 1017.2 |
| 20260504035907 | 5 | 352 | 0.0 | 0.0 | 0.00 | 0.00 | 0.00 | 75 | 1017.2 |
| 20260504035405 | 6 | 352 | 0.0 | 1.6 | 0.00 | 0.00 | 0.00 | 78 | 1017.3 |
| 20260504034901 | 6 | 352 | 1.6 | 3.2 | 0.00 | 0.00 | 0.00 | 76 | 1017.2 |
| 20260504034359 | 6 | 352 | 0.0 | 0.0 | 0.00 | 0.00 | 0.00 | 75 | 1017.2 |
| 20260504033856 | 6 | 352 | 0.0 | 0.0 | 0.00 | 0.00 | 0.00 | 73 | 1017.0 |
| 20260504033354 | 6 | 352 | 0.0 | 0.0 | 0.00 | 0.00 | 0.00 | 71 | 1017.0 |
| 20260504032850 | 6 | 352 | 0.0 | 0.0 | 0.00 | 0.00 | 0.00 | 70 | 1017.0 |
| 20260504032347 | 7 | 352 | 0.0 | 1.6 | 0.00 | 0.00 | 0.00 | 69 | 1017.0 |
| 20260504031844 | 7 | 352 | 0.0 | 3.2 | 0.00 | 0.00 | 0.00 | 72 | 1017.0 |
| 20260504031341 | 7 | 352 | 0.0 | 0.0 | 0.00 | 0.00 | 0.00 | 71 | 1017.0 |
| 20260504030837 | 7 | 352 | 0.0 | 0.0 | 0.00 | 0.00 | 0.00 | 66 | 1017.1 |
| 20260504030335 | 8 | 277 | 0.0 | 0.0 | 0.00 | 0.00 | 0.00 | 64 | 1017.2 |
| 20260504025831 | 10 | 277 | 0.0 | 1.6 | 0.00 | 0.00 | 0.00 | 60 | 1017.1 |
| 20260504025328 | 9 | 341 | 1.6 | 1.6 | 0.00 | 0.00 | 0.00 | 52 | 1017.0 |
| 20260504024825 | 10 | 2 | 3.2 | 6.4 | 0.00 | 0.00 | 0.00 | 55 | 1017.1 |
| 20260504024321 | 8 | 314 | 1.6 | 3.2 | 0.00 | 0.00 | 0.00 | 60 | 1016.9 |
| 20260504023818 | 8 | 300 | 0.0 | 1.6 | 0.00 | 0.00 | 0.00 | 65 | 1017.0 |
| 20260504023315 | 8 | 300 | 0.0 | 0.0 | 0.00 | 0.00 | 0.00 | 67 | 1017.0 |
| 20260504022810 | 7 | 300 | 0.0 | 0.0 | 0.00 | 0.00 | 0.00 | 69 | 1016.8 |
| 20260504022307 | 7 | 300 | 0.0 | 0.0 | 0.00 | 0.00 | 0.00 | 66 | 1017.0 |
| 20260504021803 | 7 | 300 | 0.0 | 0.0 | 0.00 | 0.00 | 0.00 | 71 | 1016.9 |
| 20260504021302 | 7 | 300 | 0.0 | 0.0 | 0.00 | 0.00 | 0.00 | 66 | 1016.9 |
| 20260504020758 | 7 | 300 | 0.0 | 0.0 | 0.00 | 0.00 | 0.00 | 69 | 1017.0 |
| 20260504020255 | 7 | 300 | 0.0 | 0.0 | 0.00 | 0.00 | 0.00 | 69 | 1016.9 |
| 20260504015750 | 7 | 300 | 0.0 | 0.0 | 0.00 | 0.00 | 0.00 | 69 | 1016.7 |
| 20260504015247 | 7 | 300 | 0.0 | 0.0 | 0.00 | 0.00 | 0.00 | 69 | 1016.6 |
| 20260504014743 | 7 | 300 | 0.0 | 0.0 | 0.00 | 0.00 | 0.00 | 68 | 1016.8 |
| 20260504014240 | 7 | 300 | 0.0 | 0.0 | 0.00 | 0.00 | 0.00 | 68 | 1016.6 |
| 20260504013737 | 7 | 300 | 0.0 | 0.0 | 0.00 | 0.00 | 0.00 | 67 | 1016.7 |
| 20260504013235 | 8 | 300 | 0.0 | 0.0 | 0.00 | 0.00 | 0.00 | 66 | 1016.6 |
| 20260504012731 | 8 | 300 | 0.0 | 0.0 | 0.00 | 0.00 | 0.00 | 65 | 1016.7 |
| 20260504012229 | 8 | 300 | 0.0 | 0.0 | 0.00 | 0.00 | 0.00 | 65 | 1016.5 |
| 20260504011726 | 8 | 300 | 0.0 | 0.0 | 0.00 | 0.00 | 0.00 | 65 | 1016.4 |
| 20260504011223 | 8 | 300 | 0.0 | 0.0 | 0.00 | 0.00 | 0.00 | 61 | 1016.4 |
| 20260504010719 | 8 | 300 | 0.0 | 0.0 | 0.00 | 0.00 | 0.00 | 63 | 1016.7 |
| 20260504010215 | 8 | 300 | 0.0 | 0.0 | 0.00 | 0.00 | 0.00 | 64 | 1016.3 |
| 20260504005711 | 9 | 300 | 0.0 | 0.0 | 0.00 | 0.00 | 0.00 | 64 | 1016.4 |
| 20260504005209 | 9 | 300 | 0.0 | 0.0 | 0.00 | 0.00 | 0.00 | 60 | 1016.4 |
| 20260504004706 | 9 | 300 | 0.0 | 0.0 | 0.00 | 0.00 | 0.00 | 62 | 1016.4 |
| 20260504004203 | 10 | 300 | 0.0 | 0.0 | 0.00 | 0.00 | 0.00 | 56 | 1016.5 |
| 20260504003700 | 10 | 300 | 0.0 | 0.0 | 0.00 | 0.00 | 0.00 | 59 | 1016.3 |
| 20260504003156 | 10 | 300 | 0.0 | 0.0 | 0.00 | 0.00 | 0.00 | 55 | 1016.3 |
| 20260504002653 | 10 | 300 | 0.0 | 0.0 | 0.00 | 0.00 | 0.00 | 55 | 1016.3 |
| 20260504002150 | 10 | 300 | 0.0 | 0.0 | 0.00 | 0.00 | 0.00 | 51 | 1016.3 |
| 20260504001648 | 11 | 299 | 0.0 | 0.0 | 0.00 | 0.00 | 0.00 | 50 | 1016.2 |
| 20260504001144 | 12 | 300 | 0.0 | 0.0 | 0.00 | 0.00 | 0.00 | 47 | 1016.2 |
| 20260504000641 | 12 | 300 | 0.0 | 1.6 | 0.00 | 0.00 | 0.00 | 43 | 1015.9 |
| 20260504000139 | 12 | 295 | 0.0 | 0.0 | 0.00 | 0.00 | 0.00 | 43 | 1016.1 |
| 20260503235637 | 13 | 295 | 0.0 | 0.0 | 0.00 | 0.00 | 0.00 | 40 | 1016.1 |
| 20260503235133 | 14 | 294 | 3.2 | 3.2 | 0.00 | 0.00 | 0.00 | 36 | 1016.1 |
| 20260503234631 | 15 | 314 | 3.2 | 3.2 | 0.00 | 0.00 | 0.00 | 33 | 1016.0 |
| 20260503234129 | 15 | 292 | 1.6 | 4.8 | 0.00 | 0.00 | 0.00 | 34 | 1016.2 |
| 20260503233626 | 15 | 310 | 6.4 | 6.4 | 0.00 | 0.00 | 0.00 | 32 | 1016.0 |
| 20260503233121 | 15 | 322 | 4.8 | 11.3 | 0.00 | 0.00 | 0.00 | 31 | 1015.9 |
| 20260503232619 | 15 | 286 | 8.0 | 11.3 | 0.00 | 0.00 | 0.00 | 31 | 1015.9 |
| 20260503232116 | 15 | 307 | 3.2 | 16.1 | 0.00 | 0.00 | 0.00 | 32 | 1015.9 |
| 20260503231614 | 16 | 312 | 3.2 | 4.8 | 0.00 | 0.00 | 0.00 | 33 | 1015.9 |
| 20260503231110 | 16 | 336 | 4.8 | 16.1 | 0.00 | 0.00 | 0.00 | 31 | 1016.0 |
| 20260503230607 | 16 | 297 | 9.7 | 12.9 | 0.00 | 0.00 | 0.00 | 30 | 1015.8 |
| 20260503230104 | 16 | 346 | 6.4 | 12.9 | 0.00 | 0.00 | 0.00 | 30 | 1015.7 |
| 20260503225601 | 16 | 286 | 4.8 | 6.4 | 0.00 | 0.00 | 0.00 | 31 | 1015.7 |
| 20260503225056 | 16 | 303 | 4.8 | 4.8 | 0.00 | 0.00 | 0.00 | 33 | 1015.7 |
| 20260503224554 | 16 | 299 | 6.4 | 6.4 | 0.00 | 0.00 | 0.00 | 31 | 1015.7 |
| 20260503224052 | 16 | 303 | 4.8 | 12.9 | 0.00 | 0.00 | 0.00 | 30 | 1015.5 |
| 20260503223550 | 16 | 30 | 6.4 | 11.3 | 0.00 | 0.00 | 0.00 | 30 | 1015.6 |
| 20260503223045 | 16 | 352 | 3.2 | 9.7 | 0.00 | 0.00 | 0.00 | 30 | 1015.6 |
| 20260503222543 | 16 | 313 | 4.8 | 4.8 | 0.00 | 0.00 | 0.00 | 29 | 1015.7 |
| 20260503222041 | 16 | 294 | 9.7 | 11.3 | 0.00 | 0.00 | 0.00 | 30 | 1015.8 |
| 20260503221539 | 17 | 39 | 1.6 | 9.7 | 0.00 | 0.00 | 0.00 | 31 | 1015.6 |
| 20260503221036 | 17 | 282 | 4.8 | 9.7 | 0.00 | 0.00 | 0.00 | 30 | 1015.8 |
| 20260503220533 | 16 | 72 | 6.4 | 6.4 | 0.00 | 0.00 | 0.00 | 31 | 1015.8 |
| 20260503220030 | 16 | 320 | 6.4 | 14.5 | 0.00 | 0.00 | 0.00 | 31 | 1015.8 |
| 20260503215527 | 16 | 327 | 6.4 | 9.7 | 0.00 | 0.00 | 0.00 | 32 | 1015.9 |
| 20260503215024 | 16 | 302 | 6.4 | 11.3 | 0.00 | 0.00 | 0.00 | 32 | 1015.8 |
| 20260503214522 | 16 | 14 | 9.7 | 17.7 | 0.00 | 0.00 | 0.00 | 31 | 1016.0 |
| 20260503214018 | 16 | 300 | 6.4 | 14.5 | 0.00 | 0.00 | 0.00 | 31 | 1015.8 |
| 20260503213517 | 16 | 13 | 8.0 | 14.5 | 0.00 | 0.00 | 0.00 | 32 | 1016.1 |
| 20260503213013 | 16 | 351 | 9.7 | 20.9 | 0.00 | 0.00 | 0.00 | 31 | 1015.9 |
| 20260503212511 | 16 | 244 | 4.8 | 9.7 | 0.00 | 0.00 | 0.00 | 31 | 1015.7 |
| 20260503212008 | 16 | 254 | 4.8 | 11.3 | 0.00 | 0.00 | 0.00 | 30 | 1016.0 |
| 20260503211505 | 16 | 281 | 3.2 | 11.3 | 0.00 | 0.00 | 0.00 | 31 | 1015.7 |
| 20260503211000 | 16 | 289 | 6.4 | 14.5 | 0.00 | 0.00 | 0.00 | 32 | 1016.0 |
| 20260503210457 | 16 | 305 | 6.4 | 12.9 | 0.00 | 0.00 | 0.00 | 32 | 1015.9 |
| 20260503205951 | 16 | 0 | 6.4 | 16.1 | 0.00 | 0.00 | 0.00 | 30 | 1015.9 |
| 20260503205448 | 16 | 339 | 6.4 | 14.5 | 0.00 | 0.00 | 0.00 | 31 | 1015.9 |
| 20260503204944 | 16 | 337 | 8.0 | 25.7 | 0.00 | 0.00 | 0.00 | 32 | 1015.9 |
| 20260503204442 | 16 | 299 | 17.7 | 22.5 | 0.00 | 0.00 | 0.00 | 31 | 1015.9 |
| 20260503203939 | 16 | 347 | 11.3 | 17.7 | 0.00 | 0.00 | 0.00 | 32 | 1016.0 |
| 20260503203437 | 16 | 306 | 6.4 | 11.3 | 0.00 | 0.00 | 0.00 | 32 | 1015.8 |
| 20260503202933 | 16 | 335 | 3.2 | 6.4 | 0.00 | 0.00 | 0.00 | 31 | 1016.1 |
| 20260503202432 | 16 | 270 | 9.7 | 17.7 | 0.00 | 0.00 | 0.00 | 32 | 1016.1 |
| 20260503201930 | 16 | 352 | 4.8 | 24.1 | 0.00 | 0.00 | 0.00 | 31 | 1016.0 |
| 20260503201427 | 15 | 290 | 3.2 | 11.3 | 0.00 | 0.00 | 0.00 | 33 | 1016.1 |
| 20260503200924 | 16 | 257 | 0.0 | 9.7 | 0.00 | 0.00 | 0.00 | 33 | 1016.2 |
| 20260503200420 | 15 | 264 | 1.6 | 12.9 | 0.00 | 0.00 | 0.00 | 31 | 1016.3 |
| 20260503195917 | 16 | 282 | 8.0 | 11.3 | 0.00 | 0.00 | 0.00 | 33 | 1016.4 |
| 20260503195415 | 16 | 336 | 9.7 | 12.9 | 0.00 | 0.00 | 0.00 | 34 | 1016.4 |
| 20260503194911 | 16 | 332 | 4.8 | 11.3 | 0.00 | 0.00 | 0.00 | 31 | 1016.4 |
| 20260503194408 | 16 | 347 | 6.4 | 14.5 | 0.00 | 0.00 | 0.00 | 33 | 1016.4 |
| 20260503193903 | 16 | 23 | 8.0 | 16.1 | 0.00 | 0.00 | 0.00 | 30 | 1016.7 |
| 20260503193359 | 16 | 53 | 9.7 | 16.1 | 0.00 | 0.00 | 0.00 | 31 | 1016.8 |
| 20260503192855 | 16 | 60 | 11.3 | 12.9 | 0.00 | 0.00 | 0.00 | 32 | 1016.6 |
| 20260503192351 | 16 | 284 | 4.8 | 14.5 | 0.00 | 0.00 | 0.00 | 30 | 1016.9 |
| 20260503191847 | 16 | 27 | 4.8 | 14.5 | 0.00 | 0.00 | 0.00 | 34 | 1016.9 |
| 20260503191345 | 15 | 352 | 11.3 | 24.1 | 0.00 | 0.00 | 0.00 | 32 | 1017.0 |
| 20260503190841 | 16 | 318 | 14.5 | 24.1 | 0.00 | 0.00 | 0.00 | 32 | 1017.1 |
| 20260503190338 | 16 | 359 | 8.0 | 14.5 | 0.00 | 0.00 | 0.00 | 35 | 1016.8 |
| 20260503185835 | 16 | 38 | 9.7 | 12.9 | 0.00 | 0.00 | 0.00 | 32 | 1016.9 |
| 20260503185331 | 16 | 56 | 8.0 | 17.7 | 0.00 | 0.00 | 0.00 | 35 | 1017.0 |
| 20260503184831 | 15 | 264 | 3.2 | 9.7 | 0.00 | 0.00 | 0.00 | 36 | 1017.2 |
| 20260503184327 | 15 | 31 | 6.4 | 17.7 | 0.00 | 0.00 | 0.00 | 31 | 1017.2 |
| 20260503183823 | 15 | 335 | 8.0 | 12.9 | 0.00 | 0.00 | 0.00 | 33 | 1017.1 |
| 20260503183321 | 15 | 240 | 9.7 | 16.1 | 0.00 | 0.00 | 0.00 | 34 | 1017.3 |
| 20260503182818 | 15 | 304 | 12.9 | 16.1 | 0.00 | 0.00 | 0.00 | 31 | 1017.3 |
| 20260503182317 | 15 | 344 | 4.8 | 17.7 | 0.00 | 0.00 | 0.00 | 33 | 1017.5 |
| 20260503181814 | 15 | 274 | 17.7 | 20.9 | 0.00 | 0.00 | 0.00 | 31 | 1017.3 |
| 20260503181311 | 15 | 353 | 3.2 | 14.5 | 0.00 | 0.00 | 0.00 | 33 | 1017.6 |
| 20260503180807 | 15 | 326 | 6.4 | 22.5 | 0.00 | 0.00 | 0.00 | 30 | 1017.6 |
| 20260503180305 | 14 | 327 | 9.7 | 16.1 | 0.00 | 0.00 | 0.00 | 31 | 1017.6 |
| 20260503175801 | 14 | 262 | 8.0 | 14.5 | 0.00 | 0.00 | 0.00 | 34 | 1017.6 |
| 20260503175300 | 15 | 343 | 11.3 | 20.9 | 0.00 | 0.00 | 0.00 | 33 | 1017.5 |
| 20260503174755 | 14 | 53 | 3.2 | 12.9 | 0.00 | 0.00 | 0.00 | 35 | 1017.7 |
| 20260503174253 | 14 | 43 | 11.3 | 17.7 | 0.00 | 0.00 | 0.00 | 36 | 1017.7 |
| 20260503173748 | 13 | 354 | 6.4 | 24.1 | 0.00 | 0.00 | 0.00 | 33 | 1017.6 |
| 20260503173244 | 14 | 332 | 12.9 | 20.9 | 0.00 | 0.00 | 0.00 | 33 | 1017.8 |
| 20260503172741 | 13 | 341 | 8.0 | 16.1 | 0.00 | 0.00 | 0.00 | 35 | 1017.8 |
| 20260503172238 | 13 | 51 | 12.9 | 16.1 | 0.00 | 0.00 | 0.00 | 36 | 1017.8 |
| 20260503171735 | 13 | 297 | 11.3 | 22.5 | 0.00 | 0.00 | 0.00 | 36 | 1018.3 |
| 20260503171232 | 13 | 312 | 9.7 | 16.1 | 0.00 | 0.00 | 0.00 | 42 | 1018.3 |
| 20260503170729 | 13 | 303 | 8.0 | 12.9 | 0.00 | 0.00 | 0.00 | 40 | 1018.0 |
| 20260503170226 | 13 | 289 | 17.7 | 22.5 | 0.00 | 0.00 | 0.00 | 36 | 1018.3 |
| 20260503160148 | 11 | 310 | 9.7 | 14.5 | 0.00 | 0.00 | 0.00 | 40 | 1018.9 |
| 20260503150618 | 11 | 325 | 4.8 | 14.5 | 0.00 | 0.00 | 0.00 | 43 | 1019.4 |
| 20260503150114 | 10 | 349 | 9.7 | 11.3 | 0.00 | 0.00 | 0.00 | 47 | 1019.4 |
| 20260503131007 | 7 | 305 | 16.1 | 20.9 | 0.00 | 0.00 | 0.00 | 57 | 1019.7 |
| 20260503130504 | 8 | 353 | 6.4 | 14.5 | 0.00 | 0.00 | 0.00 | 54 | 1019.5 |
| 20260503110355 | 3 | 322 | 4.8 | 6.4 | 0.00 | 0.00 | 0.00 | 67 | 1018.9 |
| 20260503090246 | 4 | 354 | 3.2 | 9.7 | 0.00 | 0.00 | 0.00 | 67 | 1017.3 |
| 20260503081214 | 5 | 351 | 6.4 | 9.7 | 0.00 | 0.00 | 0.00 | 67 | 1017.2 |
| 20260503080709 | 5 | 331 | 1.6 | 6.4 | 0.00 | 0.00 | 0.00 | 67 | 1017.3 |
| 20260503080207 | 5 | 318 | 3.2 | 9.7 | 0.00 | 0.00 | 0.00 | 65 | 1017.4 |
| 20260503072643 | 5 | 284 | 1.6 | 1.6 | 0.00 | 0.00 | 0.00 | 71 | 1017.0 |
| 20260503072140 | 5 | 22 | 3.2 | 4.8 | 0.00 | 0.00 | 0.00 | 70 | 1016.8 |